Flag for India Weather past 2 weeks in Kapurthala, Punjab, India

Now
81 °F

Fog.


Feels Like: 88 °F
Forecast: 78 / 93 °F
Wind: 3 mph from North

Location: Amritsar Airport

Current Time: Aug 3, 2015 at 4:08:37 AM

Latest Report: Aug 3, 2015 at 2:30 AM


Visibility: 1 mi

Pressure: 29.62 "Hg

Humidity: 94%

Dew point: 79 °F

Location of KapurthalaLocation

Historic Weather in Kapurthala — Graph

°F

Kapurthala temperature yesterday

Maximum temperature yesterday: 88 °F (at 2:00 PM)
Minimum temperature yesterday: 79 °F (at 1:00 AM)
Average temperature yesterday: 82 °F

Past Weeks' High & Low Weather Summary

 TemperatureHumidityPressure
High95 °F (Jul 23, 3:30 PM)100% (Jul 19, 6:00 AM)29.71 "Hg (Jul 19, 6:00 AM)
Low75 °F (Jul 26, 6:00 AM)59% (Jul 29, 5:30 PM)29.45 "Hg (Jul 19, 4:00 PM)
Average85 °F86%29.57 "Hg
* Reported Jul 19 5:30 AM — Aug 3 2:00 AM, Kapurthala, Weather by CustomWeather, © 2015

Note: Actual official high and low records may vary slightly from our data, if they occured in-between our weather recording intervals... More about our weather records

Advertising

Kapurthala weather history for previous 24 hours

 ConditionsComfort  
Time TempWeatherWind HumidityBarometerVisibility
2:00 AM
Mon, Aug 3
81 °FFog.6 mph94%29.65 "Hg1 mi
1:30 AM81 °FFog.6 mph94%29.65 "Hg1 mi
1:00 AM81 °FFog.6 mph94%29.65 "Hg1 mi
12:30 AM81 °FFog.6 mph94%29.68 "Hg1 mi
12:00 AM81 °FFog.6 mph94%29.68 "Hg1 mi
11:30 PM
Sun, Aug 2
81 °FFog.2 mph94%29.68 "Hg1 mi
11:00 PM81 °FThundershowers. Partly cloudy.No wind100%29.68 "Hg1 mi
10:30 PM82 °FThundershowers. Partly cloudy.No wind94%29.68 "Hg1 mi
10:00 PM81 °FThundershowers. Partly cloudy.No wind94%29.68 "Hg1 mi
9:30 PM82 °FThundershowers. Partly cloudy.No wind89%29.65 "Hg1 mi
9:00 PM82 °FFog.No wind89%29.65 "Hg1 mi
8:30 PM82 °FFog.No wind94%29.65 "Hg1 mi
8:00 PM82 °FLight rain. Mostly cloudy.3 mph94%29.65 "Hg1 mi
7:30 PM82 °FRain. Broken clouds.2 mph94%29.65 "Hg1 mi
7:00 PM84 °FFog.3 mph89%29.65 "Hg2 mi
6:30 PM86 °FFog.No wind84%29.65 "Hg2 mi
5:30 PM86 °FFog.7 mph79%29.62 "Hg2 mi
5:00 PM86 °FFog.8 mph84%29.62 "Hg2 mi
4:30 PM84 °FFog.7 mph84%29.62 "Hg2 mi
3:00 PM86 °FFog.7 mph84%29.65 "Hg2 mi
2:30 PM84 °FFog.10 mph84%29.65 "Hg2 mi
2:00 PM88 °FFog.6 mph84%29.65 "Hg2 mi
1:00 PM86 °FFog.7 mph79%29.68 "Hg2 mi
12:30 PM86 °FFog.7 mph79%29.68 "Hg2 mi
12:00 PM84 °FFog.No wind84%29.68 "Hg2 mi
11:30 AM82 °FFog.No wind89%29.68 "Hg2 mi
11:00 AM82 °FFog.No wind89%29.68 "Hg2 mi
10:30 AM82 °FFog.6 mph89%29.68 "Hg2 mi
10:00 AM84 °FFog.7 mph84%29.68 "Hg2 mi
9:30 AM82 °FFog.7 mph89%29.71 "Hg2 mi
9:00 AM81 °FFog.8 mph94%29.68 "Hg2 mi
8:00 AM79 °FFog.3 mph100%29.68 "Hg1 mi
7:30 AM79 °FFog.8 mph94%29.65 "Hg1 mi
7:00 AM79 °FLight rain. More clouds than sun.12 mph100%29.65 "Hg1 mi
6:30 AM79 °FLight rain. More clouds than sun.7 mph100%29.65 "Hg1 mi
6:00 AM79 °FLight rain. Mostly cloudy.8 mph100%29.65 "Hg1 mi
5:30 AM79 °FLight rain. Mostly cloudy.3 mph100%29.62 "Hg1 mi
5:00 AM81 °FLight rain. Mostly cloudy.6 mph94%29.62 "Hg1 mi
4:30 AM81 °FLight rain. Mostly cloudy.6 mph94%29.62 "Hg1 mi
4:00 AM81 °FRain. Mostly cloudy.6 mph94%29.62 "Hg1 mi
Weather by CustomWeather, © 2015

See weather overviewHow to use our weather pages